Location: Newark
(52.3500°N, 175.9667°E)
Time: 08:58:05
(UTC+00:00)

N. Korean satellite - Pass Details

Date: 23 November 2019
Orbit: 455 x 506 km, 97.2° (Epoch: 10 December)

Event Time Altitude Azimuth Distance (km) Brightness Sun altitude
Rises 05:37:28 0° 183° (S) 2,578 10.5 -12.3°
Reaches altitude 10° 05:39:36 10° 190° (S) 1,706 9.7 -12.6°
Maximum altitude 05:43:06 41° 262° (W) 743 8.1 -13.1°
Drops below altitude 10° 05:46:40 10° 334° (NNW) 1,734 9.5 -13.6°
Sets 05:48:52 0° 342° (NNW) 2,626 10.3 -13.9°
